Regional Weather Roundup
Issued by NWS Upton, NY

Current Version | Previous Version | Graphics & Text | Print | Product List | Glossary Off
Versions: 1 2 3 4 5 6 7 8 9 10 11 12 13 14 15 16 17 18 19 20 21 22 23 24 25 26 27 28 29 30 31 32 33 34 35 36 37 38 39 40 41 42 43 44 45 46 47 48 49 50

000
ASUS41 KOKX 031718
RWROKX

REGIONAL WEATHER ROUNDUP
NATIONAL WEATHER SERVICE NEW YORK NY
100 PM EDT FRI JUL 03 2015

NOTE: "FAIR" INDICATES FEW OR NO CLOUDS BELOW 12,000 FEET WITH NO
SIGNIFICANT WEATHER AND/OR OBSTRUCTIONS TO VISIBILITY.

NYZ071-072-176-178-NJZ106-104-031800-
NEW YORK CITY METRO AREA


CITY           SKY/WX    TMP DP  RH WIND       PRES   REMARKS
CENTRAL PARK   SUNNY     79  49  34 CALM      30.01F
LAGUARDIA APRT MOSUNNY   77  48  35 CALM      29.98F
KENNEDY INTL   MOSUNNY   81  47  30 N12       29.99F
NEWARK/LIBERTY MOSUNNY   81  53  37 W6        29.98F
BRNX BOT. GARD   N/A     77  48  36 W3        30.00F
TETERBORO      SUNNY     78  49  35 NW5       29.97F
$$

NYZ177-179-078>081-031800-
LONG ISLAND NEW YORK

CITY           SKY/WX    TMP DP  RH WIND       PRES   REMARKS
FARMINGDALE    SUNNY     78  48  34 N10       29.99F
ISLIP          MOSUNNY   77  52  41 NW9       29.97S
SHIRLEY        SUNNY     77  51  40 N3        29.99S
WESTHAMPTON    MOSUNNY   76  57  51 SE9       30.00R
MONTAUK POINT    N/A     77  50  38 VRB3      30.00R
$$

NYZ052-065-067-031800-
HUDSON VALLEY

CITY           SKY/WX    TMP DP  RH WIND       PRES   REMARKS
WHITE PLAINS   SUNNY     75  48  38 VRB3      29.99F
NEWBURGH       SUNNY     72  52  49 VRB5      30.01
MONTGOMERY     SUNNY     74  54  49 SE7       30.00F
POUGHKEEPSIE   SUNNY     75  50  41 MISG      29.98F
ALBANY         MOSUNNY   76  49  38 VRB6      30.00F
$$

NJZ001-105-106-008-010-013-015-019>022-104-031800-
NEW JERSEY

CITY           SKY/WX    TMP DP  RH WIND       PRES   REMARKS
NEWARK/LIBERTY MOSUNNY   81  53  37 W6        29.98F
TETERBORO      SUNNY     78  49  35 NW5       29.97F
CALDWELL       SUNNY     77  53  43 VRB5      29.99F
MORRISTOWN     MOSUNNY   81  54  39 CALM      29.99F
SOMERVILLE     SUNNY     80  52  37 CALM      29.98S
SUSSEX         LGT RAIN  75  54  47 E8        30.00F
ANDOVER          N/A     75  51  43 N5        30.01F
TRENTON        SUNNY     77  57  50 CALM      29.99S
MILLVILLE      MOSUNNY   78  63  59 CALM      30.00S
ATLANTIC CITY  MOSUNNY   77  60  55 E5        30.01R
WRIGHTSTOWN    MOSUNNY   79  61  53 NE3       29.97S
TOMS RIVER     PTSUNNY   79  57  47 CALM      30.00S
BELMAR         MOSUNNY   79  59  50 CALM      30.00S
$$

PAZ047>061-062-071-031800-
EASTERN PENNSYLVANIA

CITY           SKY/WX    TMP DP  RH WIND       PRES   REMARKS
PHILADELPHIA   PTSUNNY   82  60  47 SE3       30.00S
ALLENTOWN      SUNNY     77  54  44 NW3       30.00F
SCRANTON       SUNNY     76  52  43 VRB6      30.01F
$$

CTZ002-004>006-009-010-012-RIZ004-006-007-MAZ004-011-015-031800-
SOUTHERN NEW ENGLAND
 IN CT

CITY           SKY/WX    TMP DP  RH WIND       PRES   REMARKS
BRADLEY INTL   MOSUNNY   76  49  38 VRB6      29.97F
HARTFORD       SUNNY     76  49  38 VRB6      29.97F
DANBURY        SUNNY     74  49  41 NW5       30.01S
WTRBRY/OXFORD  SUNNY     73  52  46 CALM      30.02S
BRIDGEPORT     SUNNY     75  56  51 S10       29.99R
MERIDEN        SUNNY     77  47  34 CALM      29.98S
NEW HAVEN      MOSUNNY   74  56  53 S12G25    29.99R
CHESTER        FAIR      75  50  41 NE3       29.99F
GROTON         SUNNY     73  56  54 S12       29.97R
WILLIMANTIC    SUNNY     76  48  37 E6        29.98S

 IN RI

CITY           SKY/WX    TMP DP  RH WIND       PRES   REMARKS
PROVIDENCE     MOSUNNY   78  50  37 VRB5      29.97R
BLOCK ISLAND   SUNNY     72  54  53 E3        29.99R
WESTERLY       SUNNY     74  53  48 S10       29.99R

 IN MA

CITY           SKY/WX    TMP DP  RH WIND       PRES   REMARKS
BOSTON         MOSUNNY   72  53  51 SE10      29.96R
WORCESTER      SUNNY     73  47  39 W9        29.99S
WESTFIELD      SUNNY     76  49  38 W5        29.97F
PROVINCETOWN   SUNNY     73  14  10 N7        29.98R
NANTUCKET      SUNNY     75  51  43 NE12      29.97R
$$

ANZ330-335-338-340-345-350-353-355-031800-
COASTAL MARINE OBSERVATIONS


STATION/POSITION TIME  SKY/WX   TEMP    WIND        PRES    VSBY  WAVE
                                AIR SEA DIR/SP/G                  HT/PER
                 (UTC)          (F)     (DEG/KT/KT) (MB)    (MI)  (FT/S)
NY HARB ENTRANCE 1650            71 70  240/  4/  4 1015.5          2/ 8
4S FIRE IS       1603               70                N/A           2/ 8
20S FIRE ISLAND  1650            68 69   CALM  /  2 1015.6          2/ 8
GREAT SOUTH BAY  1600            72 76  300/  4/  8   N/A
23SW MTP         1650            67 68  360/  4/  4 1015.3          3/ 8
HUDSON CANYON    NOT AVBL
KINGS POINT      1600            74 66  350/  2/  5 1015.0
CENTRAL LI SOUND NOT AVBL
EASTERN LI SOUND 1600            68 64  230/  4/  6   N/A
ROBBINS REEF     1600            72      70/  5/  6 1014.5
$$


>>>>>>>>>>>>>>>>>>>>>>>>>>>> KEY <<<<<<<<<<<<<<<<<<<<<<<<<<<
>                                                          <
>     SKY/WX - SKY CONDITION/PRESENT WEATHER               <
>     TMP    - TEMPERATURE IN FAHRENHEIT                   <
>     DP     - DEWPOINT IN FAHRENHEIT                      <
>     RH     - RELATIVE HUMIDITY IN PERCENT                <
>     WIND   - DIRECTION AND SPEED IN MPH                  <
>     PRES   - MEAN SEA LEVEL PRESSURE IN INCHES OF HG     <
>     WCI    - WIND CHILL INDEX                            <
>     VSB    - VISIBILITY IN MILES                         <
>     HX     - HEAT INDEX                                  <
>     TC     - TEMPERATURE IN CELSIUS                      <
>     VRB    - VARIABLE WIND DIRECTION                     <
>                                                          <
>>>>>>>>>>>>>>>>>>>>>>>>>>>> KEY <<<<<<<<<<<<<<<<<<<<<<<<<<<





USA.gov is the U.S. government's official web portal to all federal, state and local government web resources and services.